This is the latest recevied weather packets stored in our database for station/object K4GSL. If no packets are shown the sender has not sent any weather packets the latest 10 day(s).
| Time | Temp. | Humidity | Pressure | Rain* | Wind** | Luminosity | Snow |
|---|---|---|---|---|---|---|---|
| 1777861720 | 28.89° C | 54% | 1011.2 hPa | 0 mm | - | 35 W/m² | - |
| 1777861417 | 29.44° C | 54% | 1011.5 hPa | 0 mm | - | 38 W/m² | - |
| 1777861114 | 28.89° C | 52% | 1011.4 hPa | 0 mm | - | 40 W/m² | - |
| 1777860811 | 28.89° C | 50% | 1011.6 hPa | 0 mm | - | 46 W/m² | - |
| 1777860508 | 29.44° C | 46% | 1011.4 hPa | 0 mm | - | 47 W/m² | - |
| 1777860205 | 29.44° C | 45% | 1011.5 hPa | 0 mm | - | 47 W/m² | - |
| 1777859901 | 28.89° C | 45% | 1011.4 hPa | 0 mm | - | 42 W/m² | - |
| 1777859597 | 28.89° C | 44% | 1011.3 hPa | 0 mm | - | 41 W/m² | - |
| 1777859294 | 29.44° C | 44% | 1011.6 hPa | 0 mm | - | 42 W/m² | - |
| 1777858989 | 29.44° C | 44% | 1011.6 hPa | 0 mm | - | 44 W/m² | - |
| 1777858688 | 30° C | 42% | 1011.5 hPa | 0 mm | - | 44 W/m² | - |
| 1777858385 | 31.11° C | 41% | 1011.5 hPa | 0 mm | - | 78 W/m² | - |
| 1777858081 | 30.56° C | 41% | 1011.6 hPa | 0 mm | - | 130 W/m² | - |
| 1777857779 | 30.56° C | 44% | 1011.4 hPa | 0 mm | - | 144 W/m² | - |
| 1777857476 | 30° C | 44% | 1011.5 hPa | 0 mm | - | 165 W/m² | - |
| 1777857173 | 28.89° C | 48% | 1011.4 hPa | 0 mm | - | 185 W/m² | - |
| 1777856868 | 28.89° C | 46% | 1011.7 hPa | 0 mm | - | 77 W/m² | - |
| 1777856564 | 28.89° C | 49% | 1011.6 hPa | 0 mm | - | 72 W/m² | - |
| 1777856261 | 29.44° C | 47% | 1011.6 hPa | 0 mm | - | 64 W/m² | - |
| 1777855958 | 30° C | 47% | 1011.5 hPa | 0 mm | - | 77 W/m² | - |
| 1777855656 | 29.44° C | 47% | 1011.8 hPa | 0 mm | - | 138 W/m² | - |
| 1777855353 | 28.89° C | 46% | 1011.7 hPa | 0 mm | - | 158 W/m² | - |
| 1777855049 | 28.89° C | 48% | 1011.8 hPa | 0 mm | - | 95 W/m² | - |
| 1777854747 | 28.89° C | 47% | 1011.7 hPa | 0 mm | - | 104 W/m² | - |
| 1777854443 | 28.89° C | 49% | 1011.5 hPa | 0 mm | - | 105 W/m² | - |
* Rain latest hour (hover to see other rain measurements)
** Current wind speed in m/s (hover to see current wind gust speed)